This is the latest recevied weather packets stored in our database for station/object KC4BAM. If no packets are shown the sender has not sent any weather packets the latest 10 day(s).
| Time | Temp. | Humidity | Pressure | Rain* | Wind** | Luminosity | Snow |
|---|---|---|---|---|---|---|---|
| 1778057350 | 10.56° C | 96% | 1000.5 hPa | 0 mm | - | 0 W/m² | - |
| 1778057048 | 10.56° C | 96% | 1000.4 hPa | 0 mm | - | 0 W/m² | - |
| 1778056744 | 10.56° C | 96% | 1000.6 hPa | 0 mm | - | 0 W/m² | - |
| 1778056441 | 10.56° C | 96% | 1000.6 hPa | 0 mm | - | 0 W/m² | - |
| 1778056138 | 10.56° C | 96% | 1000 hPa | 0 mm | - | 0 W/m² | - |
| 1778055835 | 10.56° C | 96% | 1000.2 hPa | 0 mm | - | 0 W/m² | - |
| 1778055531 | 10.56° C | 96% | 999.9 hPa | 0 mm | - | 0 W/m² | - |
| 1778055230 | 11.11° C | 96% | 1000.5 hPa | 1.27 mm | - | 0 W/m² | - |
| 1778054927 | 11.11° C | 96% | 1000.2 hPa | 4.83 mm | - | 0 W/m² | - |
| 1778054623 | 11.11° C | 96% | 1000.1 hPa | 4.83 mm | - | 0 W/m² | - |
| 1778054321 | 11.11° C | 96% | 999.9 hPa | 3.05 mm | - | 0 W/m² | - |
| 1778054018 | 11.11° C | 96% | 999.4 hPa | 0 mm | - | 0 W/m² | - |
| 1778053715 | 11.67° C | 95% | 999 hPa | 0 mm | - | 0 W/m² | - |
| 1778053412 | 11.67° C | 95% | 999.1 hPa | 0 mm | - | 0 W/m² | - |
| 1778053110 | 11.67° C | 95% | 999.1 hPa | 0 mm | - | 0 W/m² | - |
| 1778052807 | 11.67° C | 95% | 999 hPa | 1.27 mm | - | 0 W/m² | - |
| 1778052504 | 11.67° C | 95% | 999 hPa | 1.27 mm | - | 0 W/m² | - |
| 1778052202 | 11.67° C | 95% | 999.6 hPa | 0 mm | - | 0 W/m² | - |
| 1778051899 | 11.67° C | 95% | 998.8 hPa | 0 mm | - | 0 W/m² | - |
| 1778051597 | 11.67° C | 95% | 998.5 hPa | 0 mm | - | 0 W/m² | - |
| 1778051294 | 11.67° C | 95% | 998.8 hPa | 0 mm | - | 0 W/m² | - |
| 1778050991 | 11.67° C | 94% | 998.6 hPa | 0 mm | - | 0 W/m² | - |
| 1778050688 | 12.22° C | 94% | 998.2 hPa | 1.78 mm | - | 0 W/m² | - |
| 1778050386 | 12.22° C | 94% | 998.4 hPa | 1.78 mm | - | 0 W/m² | - |
| 1778050082 | 12.22° C | 94% | 998.4 hPa | 0 mm | - | 0 W/m² | - |
* Rain latest hour (hover to see other rain measurements)
** Current wind speed in m/s (hover to see current wind gust speed)